Погода в Новолукомле

Беларусь     54°39′24″N   29°08′27″E
темп.,
°C
ветер,
м/с
пор.,
м/с
влажн.,
%
обл.,
%
осадки,
мм/ч
давл.,
гПа
погр.,
м
11 мая, вт
вт1100:00+8ююв36755 0.0 102682
03:00+7ююв367413 0.0 102688
06:00+7юв35797 0.0 102674
09:00+13юв466323 0.0 1026363
12:00+16вюв455097 0.0 1025974
15:00+18вюв4546100 0.0 10241146
18:00+17вюв465753 0.0 1023723
21:00+12вюв36750 0.0 102378
12 мая, ср
ср1200:00+10вюв39895 0.0 1023150
03:00+10юв39953 0.0 1022184
06:00+10юв39977 0.0 1023276
09:00+13юв68700 0.0 1023720
12:00+15юв68600 0.0 10231121
15:00+17вюв56556 0.0 10211512
18:00+16в355676 0.0 10191670
21:00+12юв2270100 0.0 101634
13 мая, чт
чт1300:00+11ссв3688100 0.8 1013234
03:00+9юв4996100 9.2 1013467
06:00+8вюв499510 0.0 1013357
09:00+8в7129397 0.5 1012985
12:00+8юв7138790 0.6 10111022
15:00+9юв61091100 1.1 1011407
18:00+13юв487687 0.5 10101124
21:00+9юз2495100 1.6 1011101
14 мая, пт
пт1400:00+9в4995100 0.6 1011255
03:00+9вюв51494100 2.4 1010680
06:00+10юв61489100 0.2 1009502
09:00+10юв6149397 0.3 1009492
12:00+11вюв4129392 1.3 1009479
15:00+15ююв6108432 1.8 1008837
18:00+16ю36826 2.1 1007578
21:00+13ю22905 2.6 100718
15 мая, сб
сб1500:00+11ю2292100 0.0 100719
03:00+10ююв2292100 0.0 100711
06:00+11ююз1194100 0.3 100711
09:00+12ю1196100 1.1 100742
12:00+14юз2288100 0.3 1007361
15:00+13зюз3592100 1.0 1008253
18:00+14юз248866 0.0 1007342
21:00+12юз3591100 0.0 100873